Fergus Falls, MN

8:57 PM CST on December 14, 2019 (GMT -0600)
Fergus Falls Municipal-Mickelson

Weather History for KFFM - October, 2019

Change the Weather History Date:

Sunday, October 27, 2019

  Actual Average Record
Temperature  
Mean Temperature 32 °F -  
Max Temperature 37 °F 53 °F 79 °F (1989)
Min Temperature 28 °F 33 °F 15 °F (1988)
Degree Days  
Heating Degree Days 32    
Moisture  
Dew Point 26 °F    
Average Humidity 73    
Maximum Humidity 87    
Minimum Humidity 56    
Precipitation  
Precipitation 0.00 in - - ()
Sea Level Pressure  
Sea Level Pressure 29.98 in    
Wind  
Wind Speed 14 mph ()    
Max Wind Speed 21 mph    
Max Gust Speed 26 mph    
Visibility 10.0 miles    
Events      
Averages and records for this station are not official NWS values.
T = Trace of Precipitation, MM = Missing Value Source: Averaged Metar Reports

Daily Weather History Graph

Daily Weather History Graph

Search for Another Location

Airport or City:

Astronomy

Oct. 27, 2019 Rise Set
Actual Time 7:58 AM CDT 6:17 PM CDT
Civil Twilight 7:27 AM CDT 6:48 PM CDT
Nautical Twilight 6:52 AM CDT 7:24 PM CDT
Astronomical Twilight 6:17 AM CDT 7:58 PM CDT
Moon 7:02 AM CDT (10/27) 6:31 PM CDT (10/27)
Length of Visible Light 11h 21m
Length of Day
10h 19m
Waning Crescent, 0% of the Moon is Illuminated
Oct 27
Waning Crescent
Oct 27
New
Nov 4
First Quarter
Nov 12
Full
Nov 19
Last Quarter

Hourly Weather History & Observations

Time (CDT) Temp. Windchill Dew Point Humidity Pressure Visibility Wind Dir Wind Speed Gust Speed Precip Events Conditions
12:16 AM 37.4 °F 27.8 °F 33.8 °F 87% 29.77 in 10.0 mi NNW 17.3 mph 26.5 mph N/A   Overcast
12:35 AM 37.4 °F 27.8 °F 33.8 °F 87% 29.78 in 10.0 mi NNW 17.3 mph 25.3 mph N/A   Overcast
12:36 AM 37.4 °F 28.5 °F 33.8 °F 87% 29.79 in 10.0 mi NNW 15.0 mph 25.3 mph N/A   Overcast
12:55 AM 37.4 °F 27.8 °F 33.8 °F 87% 29.78 in 10.0 mi North 17.3 mph 21.9 mph N/A   Overcast
12:56 AM 37.4 °F 28.2 °F 33.8 °F 87% 29.78 in 10.0 mi North 16.1 mph 21.9 mph N/A   Overcast
1:19 AM 37.4 °F 27.5 °F 33.8 °F 87% 29.79 in 10.0 mi NNW 18.4 mph 21.9 mph N/A   Mostly Cloudy
1:36 AM 37.4 °F 27.5 °F 33.8 °F 87% 29.81 in 10.0 mi NNW 18.4 mph 26.5 mph N/A   Overcast
1:55 AM 37.4 °F 29.3 °F 33.8 °F 87% 29.80 in 10.0 mi NNW 12.7 mph 19.6 mph N/A   Overcast
2:15 AM 37.4 °F 28.9 °F 33.8 °F 87% 29.81 in 10.0 mi NNW 13.8 mph 18.4 mph N/A   Overcast
2:16 AM 37.4 °F 28.9 °F 33.8 °F 87% 29.80 in 10.0 mi NNW 13.8 mph 18.4 mph N/A   Overcast
2:35 AM 37.4 °F 28.5 °F 33.8 °F 87% 29.83 in 10.0 mi NNW 15.0 mph 20.7 mph N/A   Overcast
2:57 AM 37.4 °F 28.5 °F 33.8 °F 87% 29.88 in 10.0 mi NW 15.0 mph 21.9 mph N/A   Overcast
3:15 AM 37.4 °F 28.9 °F 33.8 °F 87% 29.88 in 10.0 mi NW 13.8 mph - N/A   Overcast
3:35 AM 37.4 °F 29.3 °F 33.8 °F 87% 29.90 in 10.0 mi NW 12.7 mph - N/A   Overcast
3:36 AM 37.4 °F 28.9 °F 33.8 °F 87% 29.89 in 10.0 mi NW 13.8 mph - N/A   Overcast
3:55 AM 37.4 °F 27.8 °F 33.8 °F 87% 29.87 in 10.0 mi North 17.3 mph 23.0 mph N/A   Overcast
3:56 AM 37.4 °F 27.8 °F 33.8 °F 87% 29.87 in 10.0 mi North 17.3 mph 23.0 mph N/A   Overcast
4:19 AM 37.4 °F 27.5 °F 32.0 °F 81% 29.88 in 10.0 mi NNW 18.4 mph 25.3 mph N/A   Overcast
4:36 AM 37.4 °F 28.9 °F 32.0 °F 81% 29.87 in 10.0 mi NNW 13.8 mph 25.3 mph N/A   Overcast
4:56 AM 37.4 °F 29.3 °F 33.8 °F 87% 29.88 in 10.0 mi NW 12.7 mph 20.7 mph N/A   Overcast
5:15 AM 37.4 °F 28.9 °F 33.8 °F 87% 29.89 in 10.0 mi NNW 13.8 mph 19.6 mph N/A   Overcast
5:16 AM 37.4 °F 28.9 °F 33.8 °F 87% 29.89 in 10.0 mi NNW 13.8 mph 19.6 mph N/A   Overcast
5:35 AM 37.4 °F 28.5 °F 32.0 °F 81% 29.90 in 10.0 mi NNW 15.0 mph - N/A   Mostly Cloudy
5:39 AM 37.4 °F 28.9 °F 32.0 °F 81% 29.90 in 10.0 mi NNW 13.8 mph - N/A   Overcast
5:58 AM 37.4 °F 29.3 °F 32.0 °F 81% 29.90 in 10.0 mi NNW 12.7 mph 16.1 mph N/A   Overcast
6:15 AM 37.4 °F 29.8 °F 32.0 °F 81% 29.92 in 10.0 mi NNW 11.5 mph - N/A   Overcast
6:35 AM 37.4 °F 31.4 °F 32.0 °F 81% 29.90 in 10.0 mi NNW 8.1 mph - N/A   Overcast
6:36 AM 37.4 °F 31.4 °F 32.0 °F 81% 29.89 in 10.0 mi NNW 8.1 mph - N/A   Overcast
6:55 AM 37.4 °F 30.3 °F 30.2 °F 75% 29.91 in 10.0 mi North 10.4 mph 20.7 mph N/A   Overcast
7:18 AM 37.4 °F 29.3 °F 30.2 °F 75% 29.91 in 10.0 mi North 12.7 mph 21.9 mph N/A   Overcast
7:56 AM 37.4 °F 30.8 °F 30.2 °F 75% 29.95 in 10.0 mi NNW 9.2 mph 16.1 mph N/A   Overcast
8:15 AM 37.4 °F 28.9 °F 30.2 °F 75% 29.95 in 10.0 mi NW 13.8 mph 17.3 mph N/A   Overcast
8:16 AM 37.4 °F 28.9 °F 30.2 °F 75% 29.96 in 10.0 mi NW 13.8 mph 17.3 mph N/A   Overcast
8:35 AM 35.6 °F 26.2 °F 30.2 °F 81% 29.95 in 10.0 mi NNW 15.0 mph - N/A   Overcast
8:57 AM 35.6 °F 27.5 °F 30.2 °F 81% 29.97 in 10.0 mi NNW 11.5 mph 21.9 mph N/A   Overcast
9:16 AM 35.6 °F 26.2 °F 30.2 °F 81% 29.96 in 10.0 mi NNW 15.0 mph 19.6 mph N/A   Overcast
9:35 AM 35.6 °F 27.5 °F 30.2 °F 81% 29.98 in 10.0 mi NNW 11.5 mph 17.3 mph N/A   Overcast
9:36 AM 35.6 °F 27.5 °F 30.2 °F 81% 29.98 in 10.0 mi NW 11.5 mph 17.3 mph N/A   Overcast
9:55 AM 35.6 °F 25.2 °F 28.4 °F 75% 30.00 in 10.0 mi NNW 18.4 mph 24.2 mph N/A   Overcast
9:56 AM 35.6 °F 25.2 °F 28.4 °F 75% 30.00 in 10.0 mi NNW 18.4 mph 24.2 mph N/A   Overcast
10:18 AM 35.6 °F 25.5 °F 28.4 °F 75% 30.00 in 10.0 mi NNW 17.3 mph 26.5 mph N/A   Overcast
10:37 AM 35.6 °F 25.2 °F 28.4 °F 75% 30.00 in 10.0 mi NNW 18.4 mph 21.9 mph N/A   Overcast
10:56 AM 35.6 °F 26.6 °F 28.4 °F 75% 30.01 in 10.0 mi NW 13.8 mph 19.6 mph N/A   Overcast
11:15 AM 35.6 °F 25.5 °F 28.4 °F 75% 30.01 in 10.0 mi NW 17.3 mph 21.9 mph N/A   Overcast
11:16 AM 35.6 °F 26.6 °F 28.4 °F 75% 30.01 in 10.0 mi NW 13.8 mph 21.9 mph N/A   Overcast
11:35 AM 35.6 °F 25.5 °F 28.4 °F 75% 30.01 in 10.0 mi NW 17.3 mph 24.2 mph N/A   Overcast
11:57 AM 35.6 °F 24.8 °F 28.4 °F 75% 30.01 in 10.0 mi NW 19.6 mph - N/A   Overcast
12:15 PM 35.6 °F 25.5 °F 28.4 °F 75% 30.02 in 10.0 mi NW 17.3 mph 20.7 mph N/A   Overcast
12:35 PM 35.6 °F 25.5 °F 26.6 °F 70% 30.03 in 10.0 mi NW 17.3 mph 25.3 mph N/A   Overcast
12:36 PM 35.6 °F 25.5 °F 26.6 °F 70% 30.03 in 10.0 mi NW 17.3 mph 24.2 mph N/A   Overcast
12:55 PM 35.6 °F 25.9 °F 26.6 °F 70% 30.03 in 10.0 mi NW 16.1 mph 19.6 mph N/A   Overcast
12:59 PM 35.6 °F 25.2 °F 26.6 °F 70% 30.03 in 10.0 mi NW 18.4 mph 24.2 mph N/A   Overcast
1:17 PM 35.6 °F 25.9 °F 26.6 °F 70% 30.03 in 10.0 mi NW 16.1 mph 23.0 mph N/A   Overcast
1:55 PM 35.6 °F 27.1 °F 26.6 °F 70% 30.04 in 10.0 mi NW 12.7 mph 18.4 mph N/A   Overcast
1:56 PM 35.6 °F 26.6 °F 26.6 °F 70% 30.04 in 10.0 mi NW 13.8 mph 18.4 mph N/A   Overcast
2:15 PM 35.6 °F 25.2 °F 26.6 °F 70% 30.04 in 10.0 mi NW 18.4 mph 25.3 mph N/A   Overcast
2:19 PM 33.8 °F 22.5 °F 26.6 °F 75% 30.03 in 10.0 mi NW 19.6 mph - N/A   Overcast
2:37 PM 35.6 °F 25.5 °F 24.8 °F 65% 30.04 in 10.0 mi NW 17.3 mph 23.0 mph N/A   Overcast
2:56 PM 35.6 °F 25.5 °F 24.8 °F 65% 30.04 in 10.0 mi NW 17.3 mph - N/A   Overcast
3:15 PM 35.6 °F 25.2 °F 23.0 °F 60% 30.03 in 10.0 mi WNW 18.4 mph - N/A   Overcast
3:16 PM 35.6 °F 24.8 °F 23.0 °F 60% 30.03 in 10.0 mi WNW 19.6 mph - N/A   Mostly Cloudy
3:39 PM 35.6 °F 25.9 °F 23.0 °F 60% 30.02 in 10.0 mi WNW 16.1 mph 24.2 mph N/A   Mostly Cloudy
3:56 PM 33.8 °F 23.5 °F 23.0 °F 65% 30.04 in 10.0 mi NW 16.1 mph 24.2 mph N/A   Overcast
4:16 PM 35.6 °F 25.2 °F 21.2 °F 56% 30.04 in 10.0 mi NW 18.4 mph - N/A   Overcast
4:35 PM 33.8 °F 22.5 °F 21.2 °F 60% 30.04 in 10.0 mi NW 19.6 mph - N/A   Overcast
4:36 PM 33.8 °F 22.5 °F 21.2 °F 60% 30.04 in 10.0 mi NW 19.6 mph - N/A   Overcast
4:55 PM 33.8 °F 22.2 °F 21.2 °F 60% 30.05 in 10.0 mi NW 20.7 mph - N/A   Overcast
5:17 PM 33.8 °F 23.2 °F 19.4 °F 56% 30.05 in 10.0 mi NW 17.3 mph 20.7 mph N/A   Overcast
5:35 PM 33.8 °F 22.5 °F 21.2 °F 60% 30.05 in 10.0 mi NW 19.6 mph 24.2 mph N/A   Overcast
5:55 PM 32.0 °F 22.1 °F 21.2 °F 64% 30.05 in 10.0 mi NW 13.8 mph 20.7 mph N/A   Overcast
5:56 PM 32.0 °F 22.1 °F 21.2 °F 64% 30.06 in 10.0 mi NW 13.8 mph 20.7 mph N/A   Overcast
6:15 PM 32.0 °F 20.5 °F 19.4 °F 60% 30.06 in 10.0 mi NW 18.4 mph 23.0 mph N/A   Overcast
6:19 PM 32.0 °F 21.2 °F 19.4 °F 60% 30.06 in 10.0 mi NW 16.1 mph 23.0 mph N/A   Overcast
6:38 PM 30.2 °F 19.8 °F 19.4 °F 64% 30.07 in 10.0 mi NW 13.8 mph - N/A   Overcast
6:55 PM 30.2 °F 19.8 °F 19.4 °F 64% 30.07 in 10.0 mi WNW 13.8 mph - N/A   Overcast
7:15 PM 30.2 °F 20.8 °F 19.4 °F 64% 30.07 in 10.0 mi NW 11.5 mph 18.4 mph N/A   Overcast
7:16 PM 30.2 °F 20.8 °F 19.4 °F 64% 30.07 in 10.0 mi NW 11.5 mph 18.4 mph N/A   Overcast
7:35 PM 30.2 °F 20.2 °F 19.4 °F 64% 30.07 in 10.0 mi NW 12.7 mph - N/A   Overcast
7:36 PM 30.2 °F 19.8 °F 19.4 °F 64% 30.07 in 10.0 mi NW 13.8 mph 18.4 mph N/A   Overcast
7:58 PM 30.2 °F 20.2 °F 19.4 °F 64% 30.07 in 10.0 mi NW 12.7 mph - N/A   Overcast
8:15 PM 30.2 °F 20.8 °F 19.4 °F 64% 30.07 in 10.0 mi NW 11.5 mph - N/A   Overcast
8:35 PM 30.2 °F 19.3 °F 17.6 °F 60% 30.08 in 10.0 mi NW 15.0 mph - N/A   Overcast
8:55 PM 30.2 °F 20.2 °F 17.6 °F 60% 30.09 in 10.0 mi NW 12.7 mph 19.6 mph N/A   Overcast
8:56 PM 30.2 °F 19.3 °F 17.6 °F 60% 30.09 in 10.0 mi NW 15.0 mph 19.6 mph N/A   Overcast
9:18 PM 30.2 °F 20.8 °F 19.4 °F 64% 30.09 in 10.0 mi NW 11.5 mph - N/A   Overcast
9:37 PM 28.4 °F 17.0 °F 17.6 °F 64% 30.09 in 10.0 mi NW 15.0 mph - N/A   Overcast
9:56 PM 28.4 °F 17.0 °F 17.6 °F 64% 30.10 in 10.0 mi NW 15.0 mph - N/A   Overcast
10:15 PM 28.4 °F 17.5 °F 17.6 °F 64% 30.10 in 10.0 mi WNW 13.8 mph - N/A   Overcast
10:16 PM 28.4 °F 18.0 °F 17.6 °F 64% 30.10 in 10.0 mi WNW 12.7 mph - N/A   Overcast
10:35 PM 28.4 °F 17.0 °F 17.6 °F 64% 30.10 in 10.0 mi WNW 15.0 mph - N/A   Overcast
10:57 PM 28.4 °F 17.5 °F 17.6 °F 64% 30.10 in 10.0 mi WNW 13.8 mph 18.4 mph N/A   Overcast
11:15 PM 28.4 °F 18.5 °F 17.6 °F 64% 30.11 in 10.0 mi WNW 11.5 mph - N/A   Overcast
11:35 PM 28.4 °F 19.1 °F 17.6 °F 64% 30.10 in 10.0 mi NW 10.4 mph - N/A   Overcast
11:36 PM 28.4 °F 19.1 °F 17.6 °F 64% 30.10 in 10.0 mi WNW 10.4 mph - N/A   Overcast
11:55 PM 28.4 °F 17.5 °F 17.6 °F 64% 30.10 in 10.0 mi WNW 13.8 mph - N/A   Overcast
11:56 PM 28.4 °F 18.5 °F 17.6 °F 64% 30.10 in 10.0 mi WNW 11.5 mph - N/A   Overcast